[[{"header":{"parameterUnit":"m.s-1","parameterCategory":2,"la1":30.2991,"la2":30.254,"lo1":-89.0895,"lo2":-89.0444,"dy":0.0017,"dx":0.0017,"nx":28,"ny":28,"refTime":"2023-08-11T09:00:00:Z","depth":"0","parameterNumber":2,"parameterNumberName":"U-component_of_CURRENTS"},"data":[0,0,0,0,0,0,0,0,0,0,0,0,0,0,0,0,0,0,0,0,0,0,0,0,0,0,0,0,0,0,0,0,0,0,0,0,0,0,0,0,0,0,0,0,0,0,0,0,0,0,0,0,0,0,0,0,0,0,0.1185,0.1186,0,0.132,0.1322,0.1323,0.1306,0.1304,0.1302,0.1299,0.1387,0.1392,0.1396,0,0,0,0,0,0,0,0,0,0,0,0,0,0.1001,0.1004,0.1185,0.1186,0.1188,0.132,0.1322,0.1324,0.1307,0.1304,0.1301,0.1298,0.1386,0.1391,0.1396,0,0,0,0,0,0,0,0,0,0,0,0,0,0.1104,0.1005,0.1185,0.1194,0.1196,0.1319,0.1322,0.1324,0.1307,0.1304,0.13,0.1297,0.1384,0.139,0.1397,0.1508,0,0,0.1418,0.1421,0,0,0,0,0,0,0,0,0.1098,0.1111,0.1191,0.1194,0.1196,0.1292,0.1289,0.1383,0.1308,0.1267,0.1299,0.1295,0.1353,0.1362,0.1397,0.1513,0.1516,0.1418,0.1422,0.1425,0.1427,0,0,0,0,0,0,0,0.1091,0.1105,0.124,0.1193,0.1197,0.1222,0.1233,0.1308,0.1327,0.127,0.1269,0.1283,0.1353,0.1391,0.1399,0.1518,0.1418,0.1424,0.1428,0.1431,0.1616,0.1617,0,0,0,0,0,0,0.1072,0.1099,0.1235,0.1243,0.1136,0.1228,0.124,0.1266,0.1328,0.1334,0.1286,0.1282,0.1381,0.1391,0.1402,0.1527,0.1425,0.1432,0.1435,0.1616,0.1617,0.1618,0,0,0,0,0,0,0.1067,0.1083,0.123,0.1172,0.1192,0.1234,0.1264,0.127,0.1301,0.134,0.1344,0.1309,0.1379,0.1392,0.1494,0.1529,0.1435,0.1441,0.1615,0.1616,0.1617,0.1782,0,0,0,0,0,0,0.1062,0.1081,0.1099,0.1171,0.1195,0.1315,0.1268,0.1275,0.1315,0.1311,0.1363,0.1367,0.1377,0.1484,0.1501,0.1537,0.1446,0.1613,0.1615,0.1617,0.1776,0.1789,0.1801,0,0,0,0,0,0.1055,0.1104,0.1099,0.1116,0.1216,0.1317,0.1334,0.1351,0.1319,0.136,0.1399,0.1365,0.1501,0.1494,0.1512,0.1551,0.1613,0.1615,0.1617,0.177,0.1786,0.18,0,0,0,0,0,0,0.1039,0.1109,0.1105,0.1171,0.1239,0.1314,0.136,0.1363,0.1429,0.1421,0.1434,0.1446,0.1532,0.152,0.1509,0.1595,0.153,0.1536,0.1639,0.1655,0.1667,0.1666,0.1452,0,0,0,0,0,0.1043,0.1095,0.1162,0.1219,0.1254,0.1306,0.1346,0.1363,0.1426,0.1449,0.1487,0.1511,0.156,0.1591,0.1632,0.1724,0.1758,0.1734,0.1747,0.1758,0.1763,0.1886,0.1913,0.1624,0.1624,0.1624,0,0,0.1049,0.1099,0.1124,0.1219,0.1271,0.1345,0.1323,0.1403,0.1454,0.1454,0.1548,0.1579,0.1594,0.1686,0.1716,0.1681,0.1861,0.1761,0.1771,0.1769,0.1892,0.1921,0.1946,0.1625,0.1625,0.1625,0,0,0.1099,0.1139,0.1194,0.1263,0.1348,0.1389,0.1409,0.1495,0.1521,0.1627,0.1621,0.1698,0.1763,0.1806,0.1824,0.1932,0.1928,0.1895,0.1973,0.2094,0.2121,0.2144,0.2255,0.2287,0.1898,0.1898,0.1898,0,0.11,0.1173,0.1229,0.1311,0.1363,0.1405,0.1474,0.1536,0.1639,0.1685,0.166,0.1804,0.1825,0.1946,0.1961,0.1969,0.202,0.193,0.2119,0.2142,0.2164,0.2271,0.2304,0.1906,0.1905,0.1905,0.1904,0,0.1199,0.125,0.1303,0.1402,0.1475,0.1553,0.1631,0.17,0.1724,0.1782,0.1908,0.1976,0.2048,0.2057,0.2045,0.2188,0.2173,0.2135,0.2099,0.2205,0.2308,0.234,0.1918,0.1915,0.1913,0.1911,0,0,0.121,0.1335,0.1348,0.1392,0.1522,0.1593,0.1694,0.1803,0.1869,0.1973,0.2075,0.218,0.221,0.2229,0.2243,0.2338,0.2545,0.2291,0.2294,0.2431,0.2818,0.2765,0.2794,0.2547,0.2552,0.2557,0.2843,0,0.1256,0.1374,0.1436,0.1549,0.1616,0.1695,0.1785,0.1895,0.1975,0.2094,0.2188,0.2293,0.2275,0.2318,0.2425,0.2506,0.2629,0.247,0.2664,0.267,0.2638,0.2829,0.2771,0.3016,0.2874,0.2879,0.2883,0,0.1331,0.1392,0.1491,0.1601,0.1639,0.1716,0.186,0.195,0.2121,0.2188,0.233,0.2394,0.2571,0.2513,0.2783,0.268,0.276,0.2824,0.2836,0.2746,0.2677,0.2876,0.3079,0.2985,0.2931,0.2927,0.2924,0,0.1314,0.1432,0.1493,0.1546,0.1687,0.1743,0.1817,0.198,0.2078,0.2258,0.2358,0.2554,0.267,0.2819,0.2952,0.2881,0.3231,0.3153,0.3203,0.3199,0.3164,0.3147,0.3321,0.336,0.3359,0.3358,0.3357,0,0.1355,0.1406,0.1484,0.1539,0.1623,0.1728,0.1856,0.1952,0.2127,0.2283,0.2404,0.257,0.2749,0.2952,0.304,0.3248,0.3328,0.3271,0.3293,0.3217,0.3202,0.312,0.3115,0.3369,0.3367,0.3365,0.3363,0,0.136,0.14,0.1486,0.1596,0.1626,0.1697,0.1867,0.198,0.2125,0.2332,0.24,0.2645,0.2915,0.3095,0.3358,0.3375,0.3513,0.3594,0.3484,0.3485,0.3369,0.3375,0.3483,0.3462,0.3705,0.3706,0.3707,0,0.1375,0.1414,0.1518,0.1558,0.161,0.1718,0.1812,0.1967,0.2101,0.2395,0.2507,0.2797,0.3019,0.3384,0.3513,0.3723,0.362,0.3711,0.3551,0.341,0.3435,0.3284,0.3248,0.3598,0.3598,0.3598,0.3598,0,0.1401,0.1432,0.1513,0.1593,0.1672,0.1764,0.19,0.1987,0.2204,0.2372,0.2623,0.2807,0.3191,0.3404,0.364,0.3716,0.3589,0.3706,0.3625,0.3438,0.323,0.3201,0.3345,0.3595,0.3596,0.3596,0.3596,0.3596,0.142,0.1471,0.1558,0.164,0.1718,0.178,0.1845,0.2,0.2161,0.2379,0.2597,0.2806,0.3168,0.3506,0.3597,0.3622,0.3626,0.3533,0.3585,0.3462,0.3343,0.346,0.3664,0.3665,0.3666,0.3666,0.3666,0,0.1431,0.1492,0.1586,0.1666,0.1737,0.177,0.1896,0.1961,0.2098,0.2288,0.2477,0.2742,0.3032,0.3279,0.3506,0.349,0.3367,0.344,0.3237,0.3235,0.3421,0.3305,0.336,0.336,0.336,0.336,0.3361,0.3361,0.1435,0.1511,0.1565,0.1647,0.17,0.175,0.1788,0.1876,0.1989,0.2139,0.2242,0.2386,0.2778,0.3221,0.3348,0.3317,0.3212,0.3168,0.3177,0.3302,0.3311,0.332,0.3204,0.3237,0.3237,0.2848,0.2846,0.2844]},{"header":{"parameterUnit":"m.s-1","parameterCategory":2,"la1":30.2991,"la2":30.254,"lo1":-89.0895,"lo2":-89.0444,"dy":0.0017,"dx":0.0017,"nx":28,"ny":28,"refTime":"2023-08-11T09:00:00:Z","depth":"0","parameterNumber":3,"parameterNumberName":"V-component_of_CURRENTS"},"data":[0,0,0,0,0,0,0,0,0,0,0,0,0,0,0,0,0,0,0,0,0,0,0,0,0,0,0,0,0,0,0,0,0,0,0,0,0,0,0,0,0,0,0,0,0,0,0,0,0,0,0,0,0,0,0,0,0,0,-0.0376,-0.0375,0,-0.0337,-0.0336,-0.0335,-0.0367,-0.0368,-0.037,-0.0372,-0.045,-0.045,-0.0451,0,0,0,0,0,0,0,0,0,0,0,0,0,-0.0392,-0.0392,-0.0376,-0.0375,-0.0375,-0.0337,-0.0336,-0.0335,-0.0366,-0.0368,-0.0371,-0.0372,-0.045,-0.045,-0.0451,0,0,0,0,0,0,0,0,0,0,0,0,0,-0.0369,-0.0392,-0.0376,-0.0389,-0.039,-0.0337,-0.0336,-0.0335,-0.0366,-0.0369,-0.0371,-0.0373,-0.0449,-0.045,-0.0451,-0.0405,0,0,-0.0453,-0.0454,0,0,0,0,0,0,0,0,-0.037,-0.0368,-0.0387,-0.0388,-0.039,-0.0363,-0.037,-0.0365,-0.0365,-0.0371,-0.0372,-0.0375,-0.0432,-0.0434,-0.0414,-0.0408,-0.0412,-0.0453,-0.0454,-0.0454,-0.0454,0,0,0,0,0,0,0,-0.0372,-0.0369,-0.0356,-0.0387,-0.0388,-0.0369,-0.0368,-0.0368,-0.0387,-0.0371,-0.0374,-0.0375,-0.0434,-0.0413,-0.0417,-0.0413,-0.0453,-0.0454,-0.0454,-0.0455,-0.0525,-0.0526,0,0,0,0,0,0,-0.0386,-0.0371,-0.0358,-0.0355,-0.039,-0.0367,-0.0366,-0.0365,-0.0384,-0.039,-0.0373,-0.0377,-0.0411,-0.0416,-0.042,-0.0387,-0.0454,-0.0455,-0.0455,-0.0524,-0.0525,-0.0527,0,0,0,0,0,0,-0.0386,-0.0385,-0.0359,-0.0366,-0.0362,-0.0365,-0.0363,-0.0363,-0.0352,-0.0386,-0.0393,-0.0363,-0.0413,-0.0419,-0.0406,-0.0391,-0.0455,-0.0456,-0.0522,-0.0524,-0.0526,-0.031,0,0,0,0,0,0,-0.0387,-0.0385,-0.0372,-0.0366,-0.0362,-0.0318,-0.0361,-0.0361,-0.035,-0.0355,-0.0379,-0.0389,-0.0415,-0.0404,-0.0407,-0.0393,-0.0456,-0.052,-0.0523,-0.0525,-0.0315,-0.0305,-0.0295,0,0,0,0,0,-0.0387,-0.0351,-0.0372,-0.037,-0.035,-0.0317,-0.0311,-0.032,-0.0348,-0.0322,-0.0339,-0.0388,-0.0428,-0.0402,-0.0406,-0.0392,-0.0519,-0.0522,-0.0525,-0.032,-0.0307,-0.0296,0,0,0,0,0,0,-0.0342,-0.0351,-0.0374,-0.0342,-0.0333,-0.0324,-0.0294,-0.0312,-0.03,-0.0312,-0.0353,-0.036,-0.0357,-0.0417,-0.0389,-0.0439,-0.0503,-0.0507,-0.0347,-0.0335,-0.0325,-0.0278,-0.0457,0,0,0,0,0,-0.033,-0.0311,-0.0321,-0.0293,-0.0288,-0.0294,-0.0279,-0.0291,-0.0288,-0.0286,-0.0301,-0.0347,-0.037,-0.0382,-0.0411,-0.0398,-0.0424,-0.0421,-0.0411,-0.0401,-0.0376,-0.0372,-0.0355,-0.0537,-0.0537,-0.0537,0,0,-0.031,-0.0307,-0.03,-0.0282,-0.0276,-0.024,-0.0289,-0.0263,-0.0235,-0.0296,-0.0252,-0.0292,-0.0361,-0.0349,-0.0361,-0.0393,-0.0369,-0.0405,-0.0394,-0.0375,-0.0373,-0.0354,-0.0337,-0.054,-0.0539,-0.0539,0,0,-0.0244,-0.0254,-0.0216,-0.0204,-0.0194,-0.0191,-0.0187,-0.0178,-0.0177,-0.014,-0.0196,-0.0199,-0.024,-0.0257,-0.0284,-0.0242,-0.0309,-0.0311,-0.0206,-0.0201,-0.0183,-0.0168,-0.0169,-0.0155,-0.031,-0.0309,-0.0309,0,-0.0209,-0.018,-0.0195,-0.0151,-0.0134,-0.0169,-0.0123,-0.0109,-0.0097,-0.0074,-0.0117,-0.0136,-0.0184,-0.016,-0.016,-0.0205,-0.0231,-0.0221,-0.0175,-0.0161,-0.0149,-0.0154,-0.0142,-0.0299,-0.03,-0.0301,-0.0302,0,-0.0129,-0.01,-0.007,-0.0036,-0.0009,0.0023,0.0024,0.0049,0.0037,0.0053,0.0079,0.0038,0.0024,-0.0018,-0.0066,-0.003,-0.0085,-0.0144,-0.0173,-0.0115,-0.0128,-0.0118,-0.0285,-0.0288,-0.0291,-0.0294,0,0,-0.0051,-0.0023,-0.0011,0.0015,0.0045,0.0078,0.013,0.018,0.0235,0.023,0.0304,0.0262,0.024,0.0204,0.0132,0.0129,0.0197,0.003,0.0026,0.0087,0.0202,0.017,0.0176,0.0147,0.015,0.0152,0.0165,0,0.0019,0.0094,0.01,0.0187,0.0225,0.0219,0.0284,0.0324,0.035,0.0421,0.0384,0.042,0.0319,0.0317,0.0308,0.0216,0.0227,0.0198,0.0083,0.0081,0.0095,0.0189,0.0204,0.0217,0.0173,0.0175,0.0176,0,0.0105,0.0139,0.0209,0.0285,0.0306,0.036,0.0449,0.0501,0.0579,0.0603,0.0639,0.0614,0.0621,0.0516,0.0452,0.0431,0.0343,0.0271,0.0269,0.0176,0.0068,0.014,0.0234,0.0073,0.0189,0.0188,0.0187,0,0.0161,0.0233,0.0282,0.0301,0.0375,0.0422,0.0475,0.0562,0.0629,0.0724,0.0791,0.0791,0.0794,0.0699,0.0553,0.0503,0.0477,0.0386,0.0288,0.0284,0.0244,0.0232,0.0222,0.0372,0.0372,0.0372,0.0372,0,0.0244,0.0302,0.0305,0.0344,0.0429,0.0473,0.0595,0.0651,0.0762,0.0885,0.0885,0.0972,0.0837,0.0801,0.0642,0.0511,0.0551,0.0348,0.0304,0.0312,0.0307,0.0115,0.0034,0.0372,0.0372,0.0372,0.0372,0,0.0331,0.0318,0.0387,0.0441,0.0456,0.0524,0.0649,0.0755,0.0845,0.1002,0.104,0.1112,0.1073,0.0931,0.079,0.0636,0.0416,0.0442,0.0461,0.042,0.0155,0.0085,-0.0003,-0.0077,0.0346,0.0345,0.0345,0,0.0375,0.0407,0.0444,0.0471,0.0501,0.0589,0.0669,0.0774,0.0894,0.1094,0.1185,0.1223,0.1283,0.1086,0.0822,0.0591,0.0423,0.0444,0.0355,0.0187,0.0076,-0.002,-0.0083,0.0382,0.0382,0.0382,0.0382,0,0.0472,0.0474,0.0531,0.057,0.0629,0.0711,0.0835,0.0932,0.109,0.1243,0.1447,0.152,0.1362,0.1175,0.0856,0.0672,0.0336,0.0435,0.0267,0.0133,0.0024,-0.0085,0.0312,0.0382,0.0382,0.0382,0.0382,0.0382,0.0534,0.0588,0.0635,0.069,0.0751,0.085,0.0962,0.1115,0.1311,0.1572,0.1618,0.1746,0.1488,0.1067,0.0772,0.0291,0.0296,0.0167,0.0107,0.0031,-0.0061,0.0338,0.0343,0.0343,0.0343,0.0343,0.0342,0,0.0589,0.0661,0.0744,0.0811,0.0908,0.0914,0.1091,0.124,0.1487,0.1678,0.1865,0.1786,0.1434,0.099,0.0376,0.0032,-0.0135,-0.0116,-0.0241,-0.0285,0.0086,0.0065,0.0003,0.0003,0.0003,0.0004,0.0004,0.0004,0.0622,0.0717,0.0775,0.0926,0.0989,0.1145,0.1253,0.1479,0.1647,0.1904,0.1951,0.1968,0.167,0.0656,-0.0102,-0.0264,-0.0537,-0.0545,-0.0679,-0.0427,-0.0406,-0.0386,-0.0426,-0.059,-0.0591,-0.1039,-0.1043,-0.1046]}],[{"header":{"parameterUnit":"m.s-1","parameterCategory":2,"la1":30.2991,"la2":30.254,"lo1":-89.0895,"lo2":-89.0444,"dy":0.0017,"dx":0.0017,"nx":28,"ny":28,"refTime":"2023-08-11T09:00:00:Z","depth":"2","parameterNumber":2,"parameterNumberName":"U-component_of_CURRENTS"},"data":[0,0,0,0,0,0,0,0,0,0,0,0,0,0,0,0,0,0,0,0,0,0,0,0,0,0,0,0,0,0,0,0,0,0,0,0,0,0,0,0,0,0,0,0,0,0,0,0,0,0,0,0,0,0,0,0,0,0,-0.1195,-0.1195,0,-0.1154,-0.1153,-0.1153,-0.1146,-0.1146,-0.1147,-0.1147,-0.0986,-0.0982,-0.0977,0,0,0,0,0,0,0,0,0,0,0,0,0,-0.1236,-0.1236,-0.1195,-0.1195,-0.1195,-0.1154,-0.1153,-0.1152,-0.1146,-0.1146,-0.1147,-0.1147,-0.0988,-0.0982,-0.0977,0,0,0,0,0,0,0,0,0,0,0,0,0,-0.1208,-0.1236,-0.1195,-0.1187,-0.1186,-0.1154,-0.1153,-0.1152,-0.1146,-0.1146,-0.1147,-0.1148,-0.099,-0.0983,-0.0976,-0.0917,0,0,-0.0954,-0.0951,0,0,0,0,0,0,0,0,-0.1209,-0.1206,-0.1189,-0.1188,-0.1187,-0.1157,-0.1109,-0.1068,-0.1145,-0.1159,-0.1147,-0.1148,-0.1033,-0.1022,-0.1012,-0.091,-0.0903,-0.0953,-0.0949,-0.0946,-0.0944,0,0,0,0,0,0,0,-0.1211,-0.1208,-0.1177,-0.1189,-0.1187,-0.1175,-0.1172,-0.1101,-0.1089,-0.1158,-0.1158,-0.1155,-0.1031,-0.1019,-0.1008,-0.09,-0.0954,-0.0947,-0.0943,-0.094,-0.0502,-0.0495,0,0,0,0,0,0,-0.122,-0.121,-0.1179,-0.1176,-0.1202,-0.1174,-0.117,-0.1165,-0.1092,-0.1084,-0.1155,-0.1155,-0.1031,-0.1016,-0.1002,-0.076,-0.0946,-0.0939,-0.0935,-0.0509,-0.05,-0.0492,0,0,0,0,0,0,-0.1221,-0.1218,-0.1181,-0.1193,-0.1188,-0.1173,-0.1166,-0.1163,-0.1138,-0.1091,-0.108,-0.1132,-0.1031,-0.1012,-0.0905,-0.076,-0.0936,-0.093,-0.0518,-0.0506,-0.0496,-0.0383,0,0,0,0,0,0,-0.1222,-0.1218,-0.121,-0.1194,-0.1188,-0.1146,-0.1165,-0.1162,-0.1137,-0.1137,-0.1067,-0.1055,-0.103,-0.0916,-0.0898,-0.0754,-0.0924,-0.0527,-0.0513,-0.0499,-0.0396,-0.0369,-0.0346,0,0,0,0,0,-0.1224,-0.1202,-0.121,-0.1206,-0.118,-0.1145,-0.1139,-0.113,-0.1135,-0.1112,-0.1053,-0.1056,-0.0812,-0.0907,-0.0887,-0.0737,-0.0534,-0.0517,-0.0501,-0.0407,-0.0374,-0.0347,0,0,0,0,0,0,-0.1213,-0.12,-0.1207,-0.1183,-0.1163,-0.1144,-0.1118,-0.1117,-0.1056,-0.1044,-0.1008,-0.0988,-0.0817,-0.0793,-0.0899,-0.0557,-0.0652,-0.0631,-0.0587,-0.0556,-0.0532,-0.0623,-0.0918,0,0,0,0,0,-0.121,-0.1181,-0.1179,-0.1149,-0.1143,-0.1129,-0.1112,-0.1104,-0.1056,-0.1033,-0.0976,-0.0872,-0.0731,-0.067,-0.0565,-0.042,-0.0458,-0.0288,-0.0263,-0.0243,-0.0293,-0.0162,-0.0134,-0.0437,-0.0438,-0.0438,0,0,-0.1189,-0.1181,-0.1161,-0.1143,-0.1126,-0.1097,-0.1119,-0.1079,-0.1036,-0.1018,-0.0915,-0.0797,-0.0672,-0.0487,-0.0404,-0.0456,-0.0182,-0.0222,-0.0207,-0.027,-0.0143,-0.0114,-0.0089,-0.0426,-0.0428,-0.043,0,0,-0.1127,-0.1135,-0.1092,-0.1078,-0.1054,-0.1052,-0.1039,-0.1002,-0.097,-0.0864,-0.0789,-0.0619,-0.0453,-0.0321,-0.0233,-0.0012,-0.0055,0.0082,0.0126,0.0258,0.0281,0.03,0.0228,0.024,0.0093,0.0094,0.0094,0,-0.1106,-0.1035,-0.1071,-0.1035,-0.1019,-0.103,-0.0988,-0.0955,-0.0877,-0.0831,-0.0814,-0.049,-0.0374,-0.0133,-0.0024,0.0039,0.0033,-0.0009,0.028,0.0299,0.0317,0.0239,0.0251,0.0101,0.01,0.01,0.0099,0,-0.1029,-0.0953,-0.0921,-0.0886,-0.0913,-0.0837,-0.0855,-0.0814,-0.0771,-0.0721,-0.05,-0.0329,-0.0149,-0.0009,0.0051,0.0301,0.0221,0.0288,0.0173,0.0353,0.026,0.027,0.0112,0.0109,0.0107,0.0105,0,0,-0.099,-0.0872,-0.0858,-0.0796,-0.0807,-0.0806,-0.0777,-0.0721,-0.0677,-0.0536,-0.0431,-0.0109,-0.0032,0.0075,0.0225,0.0364,0.051,0.0389,0.0392,0.0253,0.0659,0.0625,0.063,0.0647,0.0652,0.0655,0.0514,0,-0.0877,-0.073,-0.0759,-0.0646,-0.0567,-0.063,-0.0626,-0.0616,-0.056,-0.0466,-0.0274,-0.0086,0.0007,0.0152,0.0303,0.047,0.0554,0.053,0.0556,0.0551,0.0455,0.0652,0.065,0.0532,0.0523,0.0525,0.0526,0,-0.081,-0.0683,-0.0564,-0.0477,-0.0477,-0.0444,-0.0467,-0.0471,-0.0409,-0.0361,-0.0199,-0.0086,0.0146,0.0224,0.047,0.0454,0.055,0.0645,0.0645,0.0568,0.0543,0.0375,0.055,0.0542,0.0541,0.054,0.0538,0,-0.0778,-0.057,-0.0457,-0.0426,-0.0375,-0.0344,-0.0339,-0.0375,-0.0387,-0.0267,-0.0206,-0.0012,0.016,0.0305,0.0464,0.0502,0.0658,0.0733,0.0743,0.0731,0.0704,0.0686,0.0894,0.0894,0.0895,0.0895,0.0895,0,-0.0696,-0.057,-0.0367,-0.0313,-0.0213,-0.0249,-0.0224,-0.0229,-0.0208,-0.0178,-0.0102,0.0006,0.0223,0.0323,0.0421,0.0563,0.0614,0.0735,0.0746,0.074,0.0729,0.0731,0.0714,0.089,0.0891,0.0892,0.0893,0,-0.0731,-0.0594,-0.046,-0.0287,-0.0209,-0.0197,-0.0155,-0.014,-0.0119,-0.0068,-0.0013,0.007,0.0204,0.0287,0.0497,0.0549,0.0655,0.0688,0.055,0.0555,0.0613,0.0604,0.0678,0.0677,0.0676,0.0675,0.0675,0,-0.07,-0.0619,-0.0471,-0.0417,-0.0304,-0.0204,-0.0166,-0.0121,-0.0096,-0.0021,0.0028,0.0164,0.0226,0.0352,0.0488,0.0538,0.0613,0.0576,0.0718,0.0613,0.0616,0.0609,0.0602,0.0666,0.0666,0.0665,0.0665,0,-0.0646,-0.0661,-0.0608,-0.0464,-0.0362,-0.0283,-0.0131,-0.01,-0.0064,0.0,0.0085,0.0138,0.0287,0.039,0.046,0.0497,0.0561,0.0569,0.0575,0.0744,0.0601,0.0603,0.0598,0.066,0.066,0.066,0.0661,0.0661,-0.0681,-0.0657,-0.0609,-0.0516,-0.0426,-0.0304,-0.0238,-0.0103,-0.0071,0.0087,0.0118,0.0271,0.0327,0.0503,0.0502,0.0549,0.0574,0.0615,0.0618,0.0621,0.067,0.0539,0.0578,0.0578,0.0578,0.0578,0.0578,0,-0.0677,-0.0626,-0.0571,-0.0509,-0.045,-0.0332,-0.0196,-0.0139,-0.0051,0.0175,0.0275,0.0384,0.0464,0.0549,0.0643,0.0628,0.0625,0.0612,0.0647,0.0649,0.0653,0.0706,0.0622,0.0622,0.0623,0.0623,0,0,-0.0703,-0.0666,-0.0629,-0.0506,-0.0413,-0.0266,-0.0185,-0.0102,0.0064,0.0254,0.0462,0.0592,0.0626,0.0705,0.0645,0.0693,0.068,0.0664,0.0624,0.0674,0.0679,0.0636,0.0719,0,0,0,0,0]},{"header":{"parameterUnit":"m.s-1","parameterCategory":2,"la1":30.2991,"la2":30.254,"lo1":-89.0895,"lo2":-89.0444,"dy":0.0017,"dx":0.0017,"nx":28,"ny":28,"refTime":"2023-08-11T09:00:00:Z","depth":"2","parameterNumber":3,"parameterNumberName":"V-component_of_CURRENTS"},"data":[0,0,0,0,0,0,0,0,0,0,0,0,0,0,0,0,0,0,0,0,0,0,0,0,0,0,0,0,0,0,0,0,0,0,0,0,0,0,0,0,0,0,0,0,0,0,0,0,0,0,0,0,0,0,0,0,0,0,-0.003,-0.0029,0,0.0064,0.0065,0.0065,0.0124,0.0125,0.0125,0.0126,0.0097,0.0096,0.0095,0,0,0,0,0,0,0,0,0,0,0,0,0,-0.0186,-0.0184,-0.003,-0.0029,-0.0028,0.0064,0.0065,0.0066,0.0124,0.0125,0.0126,0.0126,0.0097,0.0096,0.0094,0,0,0,0,0,0,0,0,0,0,0,0,0,-0.011,-0.0183,-0.0031,0.0014,0.0019,0.0063,0.0065,0.0066,0.0124,0.0125,0.0126,0.0126,0.0098,0.0096,0.0094,0.0067,0,0,0.0089,0.0088,0,0,0,0,0,0,0,0,-0.0114,-0.0105,0.0006,0.0011,0.0017,0.0085,-0.0001,0.0061,0.0124,0.0082,0.0126,0.0127,0.0082,0.0082,0.0097,0.0066,0.0065,0.0088,0.0087,0.0086,0.0086,0,0,0,0,0,0,0,-0.012,-0.0108,0.0005,0.0008,0.0014,0.002,0.0032,0.0012,0.0073,0.0086,0.0091,0.0104,0.0084,0.0098,0.0096,0.0064,0.0088,0.0087,0.0086,0.0085,-0.0029,-0.003,0,0,0,0,0,0,-0.0126,-0.0113,0.0002,0.0008,-0.0046,0.0023,0.0036,0.0061,0.0076,0.0081,0.0104,0.0107,0.0101,0.0098,0.0095,0.0028,0.0086,0.0085,0.0084,-0.0027,-0.0029,-0.0031,0,0,0,0,0,0,-0.013,-0.0116,-0.0002,-0.005,-0.0035,0.0025,0.0052,0.0062,0.0084,0.0091,0.0093,0.0116,0.0102,0.0098,0.0088,0.0029,0.0084,0.0082,-0.0025,-0.0027,-0.003,-0.0084,0,0,0,0,0,0,-0.0134,-0.0118,-0.0097,-0.005,-0.0032,0.0033,0.0052,0.0063,0.0092,0.0097,0.0102,0.01,0.0102,0.0091,0.0086,0.0027,0.0081,-0.0022,-0.0026,-0.0029,-0.008,-0.0088,-0.0096,0,0,0,0,0,-0.014,-0.0108,-0.0097,-0.0082,-0.0006,0.0034,0.0044,0.0086,0.0091,0.0106,0.0107,0.0101,0.0063,0.0089,0.0084,0.0022,-0.002,-0.0025,-0.0029,-0.0076,-0.0087,-0.0095,0,0,0,0,0,0,-0.0161,-0.0098,-0.0084,-0.0033,-0.0002,0.0045,0.0071,0.0083,0.0098,0.01,0.0097,0.0095,0.0057,0.0052,0.008,-0.0023,0.0011,0.0005,-0.0024,-0.0034,-0.0041,-0.0036,0.0079,0,0,0,0,0,-0.0159,-0.0122,-0.0072,-0.0036,-0.0015,0.0021,0.0043,0.0065,0.0084,0.0094,0.0094,0.0073,0.0032,0.0015,-0.0002,-0.0048,-0.0035,-0.0099,-0.0107,-0.0113,-0.0113,-0.0125,-0.0133,-0.0045,-0.0045,-0.0045,0,0,-0.016,-0.012,-0.0099,-0.0039,-0.0009,0.0014,0.0037,0.0072,0.0068,0.0082,0.0078,0.0055,0.0018,-0.0031,-0.0053,-0.0041,-0.0133,-0.0119,-0.0124,-0.012,-0.013,-0.0138,-0.0146,-0.0048,-0.0048,-0.0047,0,0,-0.0149,-0.0105,-0.0074,-0.0041,0.0006,0.0017,0.0023,0.0064,0.0065,0.0061,0.0043,-0.0003,-0.003,-0.0083,-0.0116,-0.0181,-0.0168,-0.0204,-0.0248,-0.0259,-0.0266,-0.0272,-0.0268,-0.0273,-0.0216,-0.0216,-0.0216,0,-0.0149,-0.0092,-0.0062,-0.0024,0.0004,0.0012,0.0039,0.003,0.0055,0.0036,0.0057,-0.0031,-0.0062,-0.0167,-0.0196,-0.0203,-0.0189,-0.0208,-0.0268,-0.0273,-0.0278,-0.0272,-0.0277,-0.0219,-0.0219,-0.0218,-0.0218,0,-0.0118,-0.0064,-0.0041,0.0002,0.0014,0.0053,0.0042,0.003,0.0022,0.0009,-0.0061,-0.01,-0.0153,-0.02,-0.0219,-0.0308,-0.028,-0.0267,-0.0238,-0.029,-0.0281,-0.0285,-0.0224,-0.0222,-0.0221,-0.0221,0,0,-0.0113,-0.0031,-0.0017,0.0009,0.0046,0.0053,0.002,-0.0003,-0.0028,-0.0059,-0.0091,-0.0209,-0.023,-0.027,-0.0322,-0.0358,-0.0396,-0.0332,-0.0332,-0.0318,-0.0402,-0.0358,-0.0358,-0.0383,-0.0384,-0.0385,-0.0382,0,-0.0081,-0.0016,0.0014,0.0052,0.0082,0.0076,0.0052,0.0009,-0.0026,-0.0059,-0.0158,-0.0194,-0.0262,-0.0281,-0.0345,-0.0367,-0.0408,-0.0396,-0.0363,-0.0362,-0.0308,-0.0362,-0.0417,-0.0417,-0.0386,-0.0386,-0.0387,0,-0.0044,-0.0008,0.0045,0.0086,0.0099,0.0103,0.0058,0.0051,-0.0028,-0.0047,-0.0136,-0.0181,-0.0288,-0.0294,-0.04,-0.0382,-0.0404,-0.0422,-0.0421,-0.0361,-0.0325,-0.0362,-0.0425,-0.0393,-0.0392,-0.0392,-0.0391,0,-0.0063,0.002,0.0056,0.0081,0.0111,0.0106,0.0109,0.0047,0.0051,-0.0027,-0.0017,-0.0165,-0.0183,-0.0268,-0.0336,-0.0355,-0.0395,-0.0417,-0.041,-0.0405,-0.0438,-0.0435,-0.0474,-0.0474,-0.0474,-0.0474,-0.0474,0,-0.0023,0.0016,0.0055,0.008,0.0106,0.0119,0.0136,0.0104,0.0098,0.0117,0.0004,-0.0022,-0.0167,-0.0219,-0.0306,-0.0361,-0.0373,-0.0423,-0.0409,-0.0458,-0.0457,-0.042,-0.0414,-0.0474,-0.0474,-0.0474,-0.0474,0,-0.0011,0.0022,0.0066,0.0097,0.011,0.0127,0.0199,0.021,0.0207,0.0234,0.023,0.0112,0.0026,-0.01,-0.0209,-0.0282,-0.0352,-0.0361,-0.0401,-0.0392,-0.0369,-0.0366,-0.038,-0.0379,-0.0378,-0.0377,-0.0376,0,-0.0001,0.0033,0.0076,0.0105,0.0138,0.0186,0.0225,0.0248,0.0286,0.0309,0.0326,0.025,0.0127,-0.0022,-0.0162,-0.0299,-0.0298,-0.0362,-0.043,-0.0379,-0.0363,-0.0362,-0.036,-0.0501,-0.0501,-0.0502,-0.0502,0,0.0018,0.0045,0.0073,0.0149,0.0191,0.0262,0.033,0.0367,0.042,0.0415,0.0396,0.0298,0.0139,-0.0087,-0.0223,-0.0304,-0.0356,-0.0366,-0.031,-0.0499,-0.0488,-0.0473,-0.047,-0.0504,-0.0503,-0.0503,-0.0503,-0.0503,0.0021,0.006,0.0111,0.0198,0.0266,0.0348,0.0404,0.0432,0.046,0.0432,0.0379,0.0259,0.0042,-0.0202,-0.0319,-0.0354,-0.0376,-0.0421,-0.0424,-0.0425,-0.0422,-0.0408,-0.0408,-0.0407,-0.0407,-0.0406,-0.0406,0,0.003,0.0108,0.0172,0.0256,0.0353,0.0419,0.0499,0.0488,0.0487,0.0435,0.0331,0.0121,-0.0129,-0.0231,-0.0344,-0.046,-0.0488,-0.0434,-0.0498,-0.0498,-0.0497,-0.05,-0.0505,-0.0505,-0.0504,-0.0504,0,0,0.004,0.0103,0.0163,0.0318,0.0441,0.0588,0.0658,0.0532,0.0503,0.0336,0.0301,0.0074,-0.0053,-0.0168,-0.0369,-0.0401,-0.0384,-0.0382,-0.0307,-0.0362,-0.0358,-0.0512,-0.0518,0,0,0,0,0]}],[{"header":{"parameterUnit":"m.s-1","parameterCategory":2,"la1":30.2991,"la2":30.254,"lo1":-89.0895,"lo2":-89.0444,"dy":0.0017,"dx":0.0017,"nx":28,"ny":28,"refTime":"2023-08-11T09:00:00:Z","depth":"4","parameterNumber":2,"parameterNumberName":"U-component_of_CURRENTS"},"data":[0,0,0,0,0,0,0,0,0,0,0,0,0,0,0,0,0,0,0,0,0,0,0,0,0,0,0,0,0,0,0,0,0,0,0,0,0,0,0,0,0,0,0,0,0,0,0,0,0,0,0,0,0,0,0,0,0,0,-0.0337,-0.0337,0,-0.0344,-0.0344,-0.0345,-0.0355,-0.0355,-0.0355,-0.0355,-0.0425,-0.0427,-0.0429,0,0,0,0,0,0,0,0,0,0,0,0,0,-0.038,-0.0379,-0.0337,-0.0337,-0.0337,-0.0344,-0.0344,-0.0345,-0.0355,-0.0355,-0.0355,-0.0355,-0.0424,-0.0427,-0.0429,0,0,0,0,0,0,0,0,0,0,0,0,0,-0.0375,-0.0379,-0.0337,-0.034,-0.034,-0.0344,-0.0344,-0.0345,-0.0355,-0.0355,-0.0355,-0.0355,-0.0423,-0.0426,-0.0429,-0.0453,0,0,-0.0439,-0.044,0,0,0,0,0,0,0,0,-0.0375,-0.0374,-0.034,-0.034,-0.034,-0.0345,-0.0384,-0.0383,-0.0355,-0.0354,-0.0355,-0.0355,-0.0402,-0.0406,-0.0413,-0.0456,-0.0459,-0.0439,-0.0441,-0.0442,-0.0443,0,0,0,0,0,0,0,-0.0375,-0.0374,-0.0344,-0.034,-0.034,-0.0356,-0.0355,-0.0384,-0.0383,-0.0354,-0.0354,-0.0348,-0.0403,-0.041,-0.0415,-0.046,-0.0439,-0.0441,-0.0443,-0.0444,-0.0589,-0.0591,0,0,0,0,0,0,-0.0364,-0.0374,-0.0344,-0.0344,-0.0353,-0.0355,-0.0354,-0.0347,-0.0382,-0.0385,-0.0348,-0.0349,-0.0405,-0.0411,-0.0417,-0.0452,-0.0442,-0.0445,-0.0447,-0.0587,-0.059,-0.0592,0,0,0,0,0,0,-0.0365,-0.0362,-0.0343,-0.0356,-0.0354,-0.0354,-0.0346,-0.0347,-0.0353,-0.0376,-0.0381,-0.0352,-0.0405,-0.0413,-0.0444,-0.0455,-0.0446,-0.0449,-0.0585,-0.0588,-0.0591,-0.0518,0,0,0,0,0,0,-0.0366,-0.0362,-0.0357,-0.0355,-0.0353,-0.0336,-0.0346,-0.0347,-0.0348,-0.0348,-0.0381,-0.0387,-0.0405,-0.044,-0.0447,-0.0459,-0.0451,-0.0582,-0.0586,-0.059,-0.0518,-0.0519,-0.0519,0,0,0,0,0,-0.0368,-0.0357,-0.0357,-0.0353,-0.0345,-0.0336,-0.0337,-0.0339,-0.0348,-0.0345,-0.0375,-0.0386,-0.0471,-0.0443,-0.0452,-0.0464,-0.058,-0.0585,-0.0589,-0.0518,-0.0518,-0.0519,0,0,0,0,0,0,-0.0373,-0.0357,-0.0357,-0.0342,-0.0335,-0.0336,-0.0336,-0.0339,-0.036,-0.0369,-0.0395,-0.0403,-0.0444,-0.0473,-0.0442,-0.0526,-0.0535,-0.0542,-0.0478,-0.0479,-0.0479,-0.0456,-0.0454,0,0,0,0,0,-0.0371,-0.036,-0.0349,-0.0338,-0.0336,-0.0338,-0.0337,-0.0339,-0.0352,-0.0361,-0.0379,-0.0424,-0.0472,-0.0486,-0.0531,-0.0559,-0.0568,-0.0585,-0.0585,-0.0585,-0.0578,-0.0623,-0.0624,-0.0607,-0.0607,-0.0607,0,0,-0.0372,-0.036,-0.0355,-0.0339,-0.034,-0.0329,-0.0338,-0.0336,-0.0324,-0.0368,-0.0369,-0.0423,-0.0485,-0.0521,-0.0543,-0.054,-0.0588,-0.059,-0.0589,-0.0582,-0.0627,-0.0628,-0.0629,-0.061,-0.0609,-0.0609,0,0,-0.0365,-0.0357,-0.0348,-0.0341,-0.0333,-0.0328,-0.0325,-0.0324,-0.0321,-0.0329,-0.0377,-0.0425,-0.0475,-0.0518,-0.0551,-0.0584,-0.0595,-0.0619,-0.0584,-0.0628,-0.0628,-0.0628,-0.0594,-0.0592,-0.0609,-0.0609,-0.0609,0,-0.0368,-0.0352,-0.0345,-0.0335,-0.0329,-0.0324,-0.0317,-0.0307,-0.0314,-0.0317,-0.0323,-0.0425,-0.0471,-0.0529,-0.0548,-0.0578,-0.0586,-0.0564,-0.0622,-0.0623,-0.0625,-0.059,-0.0589,-0.0606,-0.0607,-0.0607,-0.0607,0,-0.0351,-0.0345,-0.034,-0.0322,-0.0313,-0.0307,-0.0289,-0.0281,-0.028,-0.0278,-0.0322,-0.0384,-0.0447,-0.0481,-0.052,-0.0575,-0.0567,-0.0616,-0.0602,-0.0621,-0.0584,-0.0584,-0.0602,-0.0603,-0.0604,-0.0605,0,0,-0.0345,-0.0332,-0.0331,-0.0329,-0.031,-0.03,-0.0277,-0.026,-0.0251,-0.0261,-0.0265,-0.0352,-0.039,-0.0434,-0.0499,-0.0533,-0.054,-0.0577,-0.058,-0.0508,-0.0581,-0.048,-0.047,-0.0604,-0.0605,-0.0605,-0.053,0,-0.0338,-0.0322,-0.0313,-0.0299,-0.0294,-0.0283,-0.0261,-0.0247,-0.0236,-0.0232,-0.0282,-0.0322,-0.0368,-0.0415,-0.0455,-0.054,-0.0547,-0.0552,-0.0605,-0.0605,-0.0486,-0.047,-0.0609,-0.053,-0.053,-0.053,-0.053,0,-0.0322,-0.0316,-0.0304,-0.0297,-0.0293,-0.028,-0.0255,-0.0234,-0.0221,-0.022,-0.025,-0.0288,-0.0342,-0.0391,-0.047,-0.0475,-0.052,-0.0562,-0.0561,-0.0494,-0.0506,-0.0528,-0.0531,-0.0531,-0.0531,-0.0531,-0.0531,0,-0.0315,-0.0309,-0.03,-0.0297,-0.0282,-0.0276,-0.0262,-0.0239,-0.0222,-0.0218,-0.0219,-0.0269,-0.0305,-0.0375,-0.0438,-0.0471,-0.0502,-0.056,-0.0489,-0.0479,-0.0622,-0.0623,-0.0608,-0.0608,-0.0608,-0.0608,-0.0608,0,-0.0302,-0.0301,-0.0302,-0.0294,-0.029,-0.0278,-0.026,-0.0245,-0.0231,-0.021,-0.0226,-0.0226,-0.0315,-0.0336,-0.0405,-0.0409,-0.0468,-0.0458,-0.0461,-0.0589,-0.0588,-0.0618,-0.062,-0.0605,-0.0606,-0.0607,-0.0607,0,-0.0294,-0.0293,-0.0287,-0.0281,-0.0285,-0.0277,-0.0261,-0.0243,-0.0227,-0.0203,-0.0205,-0.0199,-0.0204,-0.0245,-0.0331,-0.0346,-0.0383,-0.0376,-0.0431,-0.0442,-0.0331,-0.0331,-0.0277,-0.0273,-0.027,-0.0267,-0.0265,0,-0.0285,-0.0282,-0.0278,-0.0275,-0.0276,-0.0269,-0.026,-0.0245,-0.0223,-0.0181,-0.017,-0.0149,-0.0146,-0.0133,-0.0203,-0.0234,-0.027,-0.0255,-0.0359,-0.0292,-0.0301,-0.0306,-0.0311,-0.0259,-0.0258,-0.0257,-0.0256,0,-0.0276,-0.0274,-0.0265,-0.0258,-0.0255,-0.0244,-0.0231,-0.0216,-0.0183,-0.0183,-0.0114,-0.009,-0.0061,-0.008,-0.0076,-0.0133,-0.025,-0.022,-0.023,-0.0328,-0.027,-0.0283,-0.0292,-0.0245,-0.0246,-0.0247,-0.0248,0,-0.0266,-0.0258,-0.0243,-0.0234,-0.0227,-0.0203,-0.0205,-0.0169,-0.0146,-0.0106,-0.0082,-0.0051,-0.0046,-0.0024,-0.0043,-0.0045,-0.0082,-0.0116,-0.0132,-0.0146,-0.0143,-0.0053,0.0058,0,0,0,0,0,-0.0254,-0.0237,-0.0222,-0.0192,-0.0179,-0.0173,-0.0172,-0.0171,-0.0155,-0.0095,-0.0081,-0.0047,-0.0007,0.0002,0.0018,-0.0013,-0.01,0.0005,-0.0154,-0.0179,-0.0193,-0.0205,0,0,0,0,0,0,-0.0242,-0.023,-0.0212,-0.0158,-0.0127,-0.0107,-0.0102,-0.0099,-0.0067,-0.0054,-0.0037,-0.0024,-0.0002,-0.0004,0.003,0.0029,-0.0067,0.0014,0.0015,-0.0171,-0.0184,-0.0195,-0.0212,0,0,0,0,0]},{"header":{"parameterUnit":"m.s-1","parameterCategory":2,"la1":30.2991,"la2":30.254,"lo1":-89.0895,"lo2":-89.0444,"dy":0.0017,"dx":0.0017,"nx":28,"ny":28,"refTime":"2023-08-11T09:00:00:Z","depth":"4","parameterNumber":3,"parameterNumberName":"V-component_of_CURRENTS"},"data":[0,0,0,0,0,0,0,0,0,0,0,0,0,0,0,0,0,0,0,0,0,0,0,0,0,0,0,0,0,0,0,0,0,0,0,0,0,0,0,0,0,0,0,0,0,0,0,0,0,0,0,0,0,0,0,0,0,0,-0.0238,-0.0238,0,-0.0273,-0.0274,-0.0274,-0.0266,-0.0265,-0.0264,-0.0263,-0.0161,-0.0159,-0.0157,0,0,0,0,0,0,0,0,0,0,0,0,0,-0.0183,-0.0185,-0.0238,-0.0238,-0.0239,-0.0273,-0.0274,-0.0274,-0.0266,-0.0265,-0.0263,-0.0262,-0.0161,-0.0159,-0.0157,0,0,0,0,0,0,0,0,0,0,0,0,0,-0.0214,-0.0185,-0.0238,-0.0236,-0.0236,-0.0273,-0.0274,-0.0275,-0.0266,-0.0265,-0.0263,-0.0262,-0.0162,-0.0159,-0.0157,-0.0167,0,0,-0.0148,-0.0147,0,0,0,0,0,0,0,0,-0.0212,-0.0217,-0.0236,-0.0237,-0.0237,-0.0261,-0.0217,-0.0231,-0.0266,-0.0258,-0.0263,-0.0261,-0.0181,-0.0176,-0.0192,-0.0163,-0.0158,-0.0148,-0.0146,-0.0145,-0.0144,0,0,0,0,0,0,0,-0.021,-0.0215,-0.0255,-0.0237,-0.0237,-0.024,-0.0243,-0.022,-0.0226,-0.0258,-0.0257,-0.0257,-0.018,-0.0195,-0.0189,-0.0157,-0.0148,-0.0145,-0.0144,-0.0143,-0.012,-0.0121,0,0,0,0,0,0,-0.0201,-0.0213,-0.0254,-0.0256,-0.0218,-0.0242,-0.0245,-0.0257,-0.0229,-0.0224,-0.0258,-0.0256,-0.02,-0.0192,-0.0185,-0.0189,-0.0145,-0.0142,-0.0141,-0.0119,-0.012,-0.0121,0,0,0,0,0,0,-0.02,-0.0205,-0.0252,-0.0232,-0.0238,-0.0244,-0.0257,-0.0258,-0.0278,-0.023,-0.0223,-0.0276,-0.0199,-0.0189,-0.0185,-0.0185,-0.0141,-0.0139,-0.0118,-0.0119,-0.0121,-0.02,0,0,0,0,0,0,-0.0199,-0.0205,-0.0215,-0.0232,-0.0238,-0.0273,-0.0258,-0.026,-0.0278,-0.0276,-0.0243,-0.0232,-0.0197,-0.019,-0.0182,-0.018,-0.0136,-0.0116,-0.0118,-0.012,-0.0196,-0.0204,-0.0211,0,0,0,0,0,-0.0197,-0.0216,-0.0216,-0.0221,-0.0252,-0.0273,-0.0278,-0.0279,-0.028,-0.0292,-0.0283,-0.0234,-0.0196,-0.019,-0.018,-0.0177,-0.0115,-0.0118,-0.012,-0.0193,-0.0203,-0.0211,0,0,0,0,0,0,-0.0199,-0.0217,-0.0217,-0.0241,-0.0254,-0.0271,-0.0283,-0.0291,-0.03,-0.0299,-0.0259,-0.0248,-0.0246,-0.0207,-0.0201,-0.0177,-0.0143,-0.0143,-0.0201,-0.021,-0.0217,-0.0201,-0.0134,0,0,0,0,0,-0.0204,-0.0226,-0.0237,-0.0259,-0.0264,-0.0279,-0.0291,-0.0297,-0.0303,-0.0307,-0.029,-0.0266,-0.0251,-0.0228,-0.0213,-0.02,-0.0186,-0.0189,-0.0197,-0.0203,-0.0185,-0.0215,-0.0224,-0.0129,-0.0129,-0.0129,0,0,-0.0211,-0.0225,-0.0236,-0.0261,-0.0272,-0.0286,-0.0284,-0.0308,-0.0318,-0.0292,-0.0305,-0.0301,-0.026,-0.0255,-0.0246,-0.0217,-0.0224,-0.0206,-0.0212,-0.019,-0.0219,-0.0228,-0.0236,-0.0131,-0.013,-0.013,0,0,-0.0233,-0.0247,-0.0267,-0.0277,-0.0296,-0.0305,-0.0314,-0.0339,-0.0343,-0.0361,-0.0349,-0.0358,-0.0322,-0.0306,-0.0287,-0.0326,-0.0277,-0.0306,-0.0311,-0.0343,-0.035,-0.0357,-0.0356,-0.0362,-0.0293,-0.0293,-0.0293,0,-0.024,-0.0265,-0.0276,-0.0293,-0.0302,-0.0314,-0.0332,-0.034,-0.0364,-0.0365,-0.0366,-0.0363,-0.0346,-0.0331,-0.0346,-0.0341,-0.0337,-0.0282,-0.0353,-0.036,-0.0365,-0.0362,-0.0368,-0.0297,-0.0297,-0.0296,-0.0296,0,-0.0267,-0.0286,-0.0299,-0.0321,-0.0336,-0.0356,-0.0362,-0.0379,-0.0391,-0.0393,-0.0404,-0.0407,-0.0395,-0.0396,-0.0378,-0.0397,-0.0375,-0.0378,-0.0332,-0.038,-0.0373,-0.0378,-0.0303,-0.0302,-0.03,-0.0299,0,0,-0.0287,-0.0313,-0.0318,-0.0328,-0.0353,-0.0369,-0.0381,-0.0392,-0.0398,-0.0414,-0.0424,-0.0425,-0.0431,-0.0411,-0.0404,-0.042,-0.0475,-0.0407,-0.0407,-0.0408,-0.0519,-0.0493,-0.0495,-0.0493,-0.0494,-0.0495,-0.0501,0,-0.0305,-0.0336,-0.0347,-0.0376,-0.039,-0.0399,-0.041,-0.042,-0.0424,-0.0436,-0.0431,-0.0444,-0.043,-0.0443,-0.0457,-0.0471,-0.0489,-0.0471,-0.0469,-0.0468,-0.0442,-0.05,-0.0499,-0.0504,-0.0505,-0.0505,-0.0506,0,-0.0323,-0.0343,-0.037,-0.0399,-0.0407,-0.0425,-0.0444,-0.0455,-0.0455,-0.0462,-0.0462,-0.046,-0.0471,-0.0478,-0.0499,-0.0486,-0.0504,-0.0516,-0.0517,-0.046,-0.045,-0.0444,-0.0513,-0.0513,-0.0512,-0.0512,-0.0511,0,-0.0327,-0.036,-0.0382,-0.039,-0.0421,-0.0436,-0.0456,-0.0464,-0.047,-0.0482,-0.0494,-0.0493,-0.0512,-0.0526,-0.0533,-0.0527,-0.0562,-0.0563,-0.055,-0.0547,-0.0532,-0.0524,-0.06,-0.06,-0.06,-0.06,-0.06,0,-0.0336,-0.0358,-0.0384,-0.0397,-0.0427,-0.0446,-0.0474,-0.0486,-0.0501,-0.0506,-0.0509,-0.0515,-0.0532,-0.0541,-0.0544,-0.0548,-0.0574,-0.0552,-0.0555,-0.0565,-0.0561,-0.0535,-0.0527,-0.0601,-0.06,-0.06,-0.06,0,-0.0337,-0.0352,-0.0379,-0.0414,-0.0428,-0.0449,-0.0491,-0.0505,-0.0521,-0.0531,-0.054,-0.0545,-0.0553,-0.0553,-0.0583,-0.0569,-0.0578,-0.0581,-0.057,-0.0572,-0.0535,-0.0531,-0.0561,-0.056,-0.056,-0.0559,-0.0559,0,-0.034,-0.0351,-0.0391,-0.0407,-0.0426,-0.046,-0.0485,-0.0513,-0.0521,-0.0538,-0.0538,-0.0555,-0.0553,-0.0553,-0.0566,-0.0565,-0.0569,-0.0571,-0.0566,-0.0535,-0.0535,-0.0532,-0.0529,-0.0558,-0.0558,-0.0558,-0.0558,0,-0.0342,-0.0354,-0.0377,-0.041,-0.0437,-0.047,-0.0502,-0.0509,-0.053,-0.0543,-0.0532,-0.0531,-0.0537,-0.0536,-0.0545,-0.0545,-0.0565,-0.0565,-0.0566,-0.0562,-0.0531,-0.0531,-0.0529,-0.0556,-0.0556,-0.0556,-0.0556,0,-0.0343,-0.0356,-0.0381,-0.0408,-0.0443,-0.047,-0.0492,-0.0504,-0.0515,-0.0521,-0.0515,-0.052,-0.0529,-0.0526,-0.0528,-0.0529,-0.0526,-0.0523,-0.0527,-0.0529,-0.0517,-0.0474,-0.0487,0,0,0,0,0,-0.0338,-0.0353,-0.0379,-0.0411,-0.0445,-0.0464,-0.0497,-0.0511,-0.0522,-0.0507,-0.0508,-0.0505,-0.0502,-0.0506,-0.0501,-0.0525,-0.0536,-0.0519,-0.0537,-0.0544,-0.0547,-0.0536,0,0,0,0,0,0,-0.0336,-0.0359,-0.0373,-0.0402,-0.0425,-0.0462,-0.0483,-0.0494,-0.0484,-0.0489,-0.0486,-0.0489,-0.049,-0.0495,-0.0492,-0.0495,-0.0503,-0.0522,-0.0521,-0.0543,-0.0545,-0.0547,-0.0537,0,0,0,0,0]}]]